[Date Prev][Date Next][Thread Prev][Thread Next] - [Date Index][Thread Index][Author Index]
2 Line ISS Keps 7-21
- Subject: [sarex] 2 Line ISS Keps 7-21
- From: "Dave Larsen PhD" <doc@xxxxxxxxxxx>
- Date: Sun, 21 Jul 2002 03:15:51 -0700
ISS
1 25544U 98067A 02202.12659094 .00017763 00000-0 22760-3 0 6814
2 25544 51.6361 242.5731 0008821 20.6555 71.8292 15.59218674209323
----
Via the sarex mailing list at AMSAT.ORG courtesy of AMSAT-NA.
To unsubscribe, send "unsubscribe sarex" to Majordomo@amsat.org
AMSAT Home